Meteo pe oră la Czuszow

Astăzi, 22 Aprilie, Joi

Timp Temperatura Precipitaţii Vânt Presiune Umiditate
00:00 +7°C° 0.1 mm 3 m/s 735 mmHg 87%
01:00 +5°C° 0 mm 3 m/s 735 mmHg 88%
02:00 +5°C° 0 mm 3 m/s 735 mmHg 88%
03:00 +5°C° 0 mm 3 m/s 735 mmHg 88%
04:00 +5°C° 0 mm 3 m/s 734 mmHg 87%
05:00 +7°C° 0 mm 3 m/s 735 mmHg 86%
06:00 +7°C° 0 mm 4 m/s 735 mmHg 84%
07:00 +7°C° 0 mm 4 m/s 735 mmHg 82%
08:00 +6°C° 0.1 mm 5 m/s 736 mmHg 85%
09:00 +5°C° 0.1 mm 5 m/s 736 mmHg 88%
10:00 +3°C° 0.1 mm 6 m/s 737 mmHg 91%
11:00 +4°C° 0.2 mm 6 m/s 737 mmHg 81%
12:00 +5°C° 0.2 mm 6 m/s 737 mmHg 71%
13:00 +5°C° 0.2 mm 6 m/s 738 mmHg 61%
14:00 +7°C° 0 mm 6 m/s 737 mmHg 57%
15:00 +7°C° 0 mm 5 m/s 737 mmHg 54%
16:00 +8°C° 0 mm 5 m/s 737 mmHg 50%
17:00 +6°C° 0 mm 4 m/s 737 mmHg 55%
18:00 +5°C° 0 mm 4 m/s 738 mmHg 59%
19:00 +3°C° 0 mm 3 m/s 738 mmHg 64%
20:00 +3°C° 0 mm 3 m/s 738 mmHg 68%
21:00 +2°C° 0 mm 3 m/s 739 mmHg 71%
22:00 +1°C° 0 mm 3 m/s 739 mmHg 74%
23:00 +1°C° 0 mm 3 m/s 739 mmHg 77%

Mâine, 23 Aprilie, Vineri

Timp Temperatura Precipitaţii Vânt Presiune Umiditate
00:00 +1°C° 0 mm 3 m/s 739 mmHg 79%
01:00 0°C° 0 mm 3 m/s 739 mmHg 81%
02:00 0°C° 0 mm 3 m/s 739 mmHg 83%
03:00 -1°C° 0 mm 4 m/s 739 mmHg 86%
04:00 -1°C° 0 mm 4 m/s 739 mmHg 88%
05:00 0°C° 0 mm 5 m/s 740 mmHg 84%
06:00 +1°C° 0 mm 5 m/s 740 mmHg 80%
07:00 +2°C° 0 mm 5 m/s 741 mmHg 76%
08:00 +3°C° 0.1 mm 5 m/s 741 mmHg 68%
09:00 +5°C° 0.1 mm 5 m/s 741 mmHg 60%
10:00 +7°C° 0.1 mm 5 m/s 741 mmHg 52%
11:00 +7°C° 0.2 mm 6 m/s 741 mmHg 52%
12:00 +6°C° 0.2 mm 7 m/s 741 mmHg 52%
13:00 +6°C° 0.2 mm 7 m/s 741 mmHg 51%
14:00 +6°C° 0 mm 7 m/s 741 mmHg 53%
15:00 +6°C° 0 mm 7 m/s 741 mmHg 55%
16:00 +6°C° 0 mm 7 m/s 741 mmHg 57%
17:00 +4°C° 0 mm 6 m/s 741 mmHg 61%
18:00 +3°C° 0 mm 6 m/s 742 mmHg 65%
19:00 +2°C° 0 mm 5 m/s 742 mmHg 70%
20:00 +1°C° 0 mm 5 m/s 742 mmHg 74%
21:00 0°C° 0 mm 4 m/s 742 mmHg 78%
22:00 0°C° 0 mm 4 m/s 742 mmHg 82%
23:00 +1°C° 0 mm 3 m/s 742 mmHg 83%

Poimâine, 24 Aprilie, Sâmbătă

Timp Temperatura Precipitaţii Vânt Presiune Umiditate
00:00 +1°C° 0 mm 3 m/s 742 mmHg 84%
01:00 +1°C° 0 mm 3 m/s 742 mmHg 85%
02:00 0°C° 0 mm 3 m/s 742 mmHg 87%
03:00 -1°C° 0 mm 3 m/s 742 mmHg 89%
04:00 -1°C° 0 mm 2 m/s 742 mmHg 91%
05:00 0°C° 0 mm 3 m/s 743 mmHg 83%
06:00 +2°C° 0 mm 3 m/s 743 mmHg 76%
07:00 +3°C° 0 mm 3 m/s 743 mmHg 68%
08:00 +4°C° 0 mm 3 m/s 743 mmHg 60%
09:00 +7°C° 0 mm 3 m/s 743 mmHg 52%
10:00 +7°C° 0 mm 4 m/s 743 mmHg 44%
11:00 +8°C° 0 mm 4 m/s 742 mmHg 43%
12:00 +8°C° 0 mm 4 m/s 742 mmHg 42%
13:00 +10°C° 0 mm 4 m/s 742 mmHg 41%
14:00 +10°C° 0 mm 4 m/s 741 mmHg 45%
15:00 +10°C° 0 mm 4 m/s 741 mmHg 48%
16:00 +10°C° 0 mm 4 m/s 741 mmHg 51%
17:00 +8°C° 0 mm 4 m/s 741 mmHg 57%
18:00 +7°C° 0 mm 3 m/s 741 mmHg 63%
19:00 +5°C° 0 mm 3 m/s 741 mmHg 69%
20:00 +6°C° 0 mm 2 m/s 741 mmHg 72%
21:00 +5°C° 0 mm 2 m/s 741 mmHg 75%
22:00 +4°C° 0 mm 2 m/s 741 mmHg 78%
23:00 +4°C° 0 mm 2 m/s 740 mmHg 80%

25 Aprilie, Duminică

Timp Temperatura Precipitaţii Vânt Presiune Umiditate
00:00 +4°C° 0 mm 2 m/s 740 mmHg 82%
01:00 +4°C° 0 mm 2 m/s 740 mmHg 84%
02:00 +3°C° 0.1 mm 2 m/s 740 mmHg 86%
03:00 +3°C° 0.1 mm 2 m/s 740 mmHg 89%
04:00 +2°C° 0.1 mm 2 m/s 740 mmHg 91%
05:00 +1°C° 0 mm 3 m/s 740 mmHg 90%
06:00 +2°C° 0 mm 3 m/s 741 mmHg 89%
07:00 +1°C° 0 mm 4 m/s 741 mmHg 88%
08:00 +3°C° 0.1 mm 4 m/s 741 mmHg 80%
09:00 +4°C° 0.1 mm 4 m/s 741 mmHg 72%
10:00 +4°C° 0.1 mm 4 m/s 741 mmHg 64%
11:00 +5°C° 0.1 mm 4 m/s 741 mmHg 58%
12:00 +6°C° 0.1 mm 5 m/s 741 mmHg 51%
13:00 +7°C° 0.1 mm 5 m/s 740 mmHg 45%
14:00 +7°C° 0 mm 6 m/s 740 mmHg 45%
15:00 +7°C° 0 mm 6 m/s 740 mmHg 45%
16:00 +7°C° 0 mm 6 m/s 740 mmHg 45%
17:00 +6°C° 0 mm 5 m/s 740 mmHg 50%
18:00 +4°C° 0 mm 4 m/s 741 mmHg 56%
19:00 +2°C° 0 mm 3 m/s 741 mmHg 61%
20:00 +3°C° 0 mm 2 m/s 741 mmHg 63%
21:00 +2°C° 0 mm 2 m/s 741 mmHg 66%
22:00 +2°C° 0 mm 2 m/s 741 mmHg 68%
23:00 +1°C° 0 mm 2 m/s 741 mmHg 70%

26 Aprilie, Luni

Timp Temperatura Precipitaţii Vânt Presiune Umiditate
00:00 +1°C° 0 mm 2 m/s 740 mmHg 72%
01:00 -1°C° 0 mm 2 m/s 740 mmHg 74%
02:00 -1°C° 0 mm 2 m/s 740 mmHg 73%
03:00 -1°C° 0 mm 2 m/s 740 mmHg 72%
04:00 +1°C° 0 mm 2 m/s 740 mmHg 71%
05:00 +2°C° 0 mm 2 m/s 740 mmHg 68%
06:00 +3°C° 0 mm 2 m/s 740 mmHg 64%
07:00 +4°C° 0 mm 2 m/s 740 mmHg 60%
08:00 +5°C° 0 mm 2 m/s 739 mmHg 57%
09:00 +7°C° 0 mm 2 m/s 739 mmHg 53%
10:00 +8°C° 0 mm 2 m/s 739 mmHg 50%
11:00 +9°C° 0 mm 3 m/s 739 mmHg 46%
12:00 +10°C° 0 mm 3 m/s 738 mmHg 43%
13:00 +10°C° 0 mm 3 m/s 738 mmHg 40%
14:00 +10°C° 0 mm 3 m/s 737 mmHg 41%
15:00 +11°C° 0 mm 3 m/s 737 mmHg 41%
16:00 +11°C° 0 mm 3 m/s 737 mmHg 41%
17:00 +9°C° 0 mm 2 m/s 737 mmHg 49%
18:00 +7°C° 0 mm 2 m/s 736 mmHg 57%
19:00 +5°C° 0 mm 2 m/s 736 mmHg 65%
20:00 +5°C° 0 mm 1 m/s 737 mmHg 67%
21:00 +5°C° 0 mm 1 m/s 737 mmHg 68%
22:00 +3°C° 0 mm 0 m/s 737 mmHg 70%
23:00 +2°C° 0 mm 0 m/s 736 mmHg 72%

27 Aprilie, Marţi

Timp Temperatura Precipitaţii Vânt Presiune Umiditate
00:00 +2°C° 0 mm 0 m/s 736 mmHg 73%
01:00 +2°C° 0 mm 0 m/s 736 mmHg 74%
02:00 +1°C° 0 mm 0 m/s 736 mmHg 76%
03:00 +2°C° 0 mm 1 m/s 735 mmHg 77%
04:00 +2°C° 0 mm 1 m/s 735 mmHg 79%
05:00 +3°C° 0 mm 1 m/s 735 mmHg 75%
06:00 +4°C° 0 mm 2 m/s 735 mmHg 70%
07:00 +5°C° 0 mm 2 m/s 735 mmHg 66%
08:00 +7°C° 0 mm 3 m/s 735 mmHg 62%
09:00 +9°C° 0 mm 3 m/s 734 mmHg 59%
10:00 +10°C° 0 mm 4 m/s 734 mmHg 55%
11:00 +11°C° 0 mm 4 m/s 734 mmHg 53%
12:00 +12°C° 0 mm 4 m/s 733 mmHg 51%
13:00 +13°C° 0 mm 4 m/s 733 mmHg 49%
14:00 +13°C° 0 mm 4 m/s 732 mmHg 51%
15:00 +13°C° 0 mm 4 m/s 732 mmHg 53%
16:00 +13°C° 0 mm 5 m/s 731 mmHg 55%
17:00 +10°C° 0 mm 5 m/s 731 mmHg 60%
18:00 +9°C° 0 mm 5 m/s 731 mmHg 64%
19:00 +8°C° 0 mm 5 m/s 730 mmHg 68%
20:00 +7°C° 0 mm 4 m/s 730 mmHg 69%
21:00 +7°C° 0 mm 4 m/s 730 mmHg 69%
22:00 +6°C° 0 mm 4 m/s 730 mmHg 70%
23:00 +6°C° 0 mm 4 m/s 729 mmHg 72%
Arată mai mult

Formular de consimțământ

Meteoprog și furnizorii noștri de servicii pot stoca și accesa date personale, precum cookies, identificatori de dispozitiv sau alte tehnologii similare pe dispozitivul dumneavoastră și procesa astfel de date pentru a personaliza conținutul și reclamele, dar și pentru a oferi caracteristici de social media și pentru a analiza traficul.

  • Stocarea și/sau accesarea informațiilor pe dispozitivul dumneavoastră

    Cookies, identificatori de dispozitiv sau alte informații pot fi stocate sau accesate pe dispozitiv în scopurile indicate mai sus.

  • Reclame și conținut personalizat, evaluarea reclamelor și a conținutului, informații despre audiențe și dezvoltarea produselor

    Reclamele și conținutul pot fi personalizate pe baza unui profil. Pot fi adăugate date suplimentare pentru a personaliza mai bine reclamele și conținutul. Performanța reclamelor și conținutului poate fi măsurată. Pot fi obținute informații despre utilizatorii care au văzut reclamele și conținutul. Aceste date pot fi utilizate pentru a dezvolta sau îmbunătăți experiența utilizatorilor, sistemele și software-ul.

Dând clic pe ‘Sunt de acord’, permiteți utilizarea cookie-urilor menționate, a identificatorilor de dispozitiv, balizelor web sau altor tehnologii similare. Setările pot fi modificate din browser-ul dispozitivului dumneavoastră.

În anumite scopuri, interesele legitime pot prima asupra consimțământului. Puteți citi mai multe informații în acest sens în Politica privind Confidențialitatea Datelor și Cookie.